TimePDT,TemperatureF,Dew PointF,Humidity,Sea Level PressureIn,VisibilityMPH,Wind Direction,Wind SpeedMPH,Gust SpeedMPH,PrecipitationIn,Events,Conditions,WindDirDegrees,DateUTC
12:15 AM,60.8,59.0,94,29.98,10.0,SSE,5.8,-,N/A,,Overcast,150,2012-10-29 07:15:00
12:35 AM,60.8,57.2,88,29.99,10.0,South,3.5,-,N/A,,Overcast,170,2012-10-29 07:35:00
12:55 AM,62.6,57.2,82,30.00,10.0,SSW,12.7,18.4,N/A,,Overcast,200,2012-10-29 07:55:00
1:15 AM,62.6,57.2,82,30.00,10.0,SSW,9.2,19.6,N/A,,Overcast,200,2012-10-29 08:15:00
1:35 AM,60.8,59.0,94,30.01,10.0,SSW,11.5,19.6,N/A,,Overcast,200,2012-10-29 08:35:00
1:55 AM,60.8,59.0,94,30.01,10.0,SSW,13.8,25.3,N/A,,Overcast,200,2012-10-29 08:55:00
2:15 AM,60.8,59.0,94,30.01,9.0,SSW,12.7,21.9,N/A,,Overcast,200,2012-10-29 09:15:00
2:55 AM,60.8,60.8,100,30.01,3.0,South,8.1,-,N/A,,Overcast,190,2012-10-29 09:55:00
3:15 AM,60.8,60.8,100,30.01,9.0,South,10.4,18.4,0.01,,Overcast,190,2012-10-29 10:15:00
3:55 AM,60.8,60.8,100,30.01,7.0,South,11.5,-,0.01,,Overcast,190,2012-10-29 10:55:00
4:15 AM,60.8,60.8,100,30.01,10.0,South,11.5,17.3,N/A,,Overcast,180,2012-10-29 11:15:00
4:35 AM,60.8,60.8,100,30.00,6.0,South,8.1,-,N/A,,Overcast,180,2012-10-29 11:35:00
4:55 AM,60.8,60.8,100,30.00,6.0,South,8.1,-,0.01,,Overcast,190,2012-10-29 11:55:00
5:15 AM,60.8,59.0,94,30.00,7.0,South,8.1,-,0.12,,Overcast,180,2012-10-29 12:15:00
5:35 AM,60.8,60.8,100,30.01,8.0,SE,3.5,-,0.15,,Overcast,130,2012-10-29 12:35:00
5:55 AM,60.8,60.8,100,30.01,5.0,SW,4.6,-,0.22,,Overcast,230,2012-10-29 12:55:00
6:15 AM,60.8,59.0,94,30.02,6.0,SSW,10.4,-,0.09,,Overcast,200,2012-10-29 13:15:00
6:35 AM,60.8,60.8,100,30.03,5.0,SSW,12.7,18.4,0.11,,Overcast,210,2012-10-29 13:35:00
6:55 AM,60.8,60.8,100,30.03,7.0,SSW,16.1,23.0,0.11,,Overcast,210,2012-10-29 13:55:00
7:35 AM,60.8,59.0,94,30.05,3.0,SSW,11.5,20.7,0.01,,Overcast,210,2012-10-29 14:35:00
7:55 AM,60.8,59.0,94,30.06,2.0,SSW,6.9,-,0.01,,Overcast,210,2012-10-29 14:55:00
8:15 AM,59.0,59.0,100,30.06,2.0,SSW,10.4,-,N/A,,Overcast,210,2012-10-29 15:15:00
8:35 AM,60.8,59.0,94,30.08,2.0,SW,8.1,-,N/A,,Overcast,220,2012-10-29 15:35:00
8:55 AM,60.8,59.0,94,30.08,2.0,SSW,9.2,-,N/A,,Overcast,210,2012-10-29 15:55:00
9:15 AM,60.8,59.0,94,30.09,2.0,SW,10.4,-,N/A,,Overcast,220,2012-10-29 16:15:00
9:35 AM,60.8,59.0,94,30.10,2.0,SW,8.1,-,N/A,,Overcast,230,2012-10-29 16:35:00
9:55 AM,60.8,59.0,94,30.11,1.5,SW,13.8,-,N/A,,Overcast,220,2012-10-29 16:55:00
10:35 AM,60.8,59.0,94,30.11,1.0,SW,9.2,-,0.01,,Overcast,220,2012-10-29 17:35:00
10:55 AM,60.8,60.8,100,30.11,1.5,SW,8.1,16.1,0.01,,Overcast,220,2012-10-29 17:55:00
11:15 AM,60.8,60.8,100,30.12,1.5,SW,8.1,16.1,N/A,,Overcast,220,2012-10-29 18:15:00
11:35 AM,60.8,60.8,100,30.12,1.5,SW,9.2,-,N/A,,Overcast,220,2012-10-29 18:35:00
11:55 AM,60.8,60.8,100,30.12,1.5,SW,6.9,-,N/A,,Overcast,230,2012-10-29 18:55:00
12:15 PM,62.6,60.8,94,30.12,7.0,SW,9.2,-,N/A,,Overcast,220,2012-10-29 19:15:00
12:35 PM,60.8,59.0,94,30.12,5.0,SW,8.1,-,N/A,,Overcast,230,2012-10-29 19:35:00
1:15 PM,62.6,62.6,100,30.11,10.0,SW,5.8,-,N/A,,Overcast,230,2012-10-29 20:15:00
1:35 PM,62.6,60.8,94,30.11,10.0,SW,9.2,-,N/A,,Overcast,230,2012-10-29 20:35:00
1:55 PM,62.6,62.6,100,30.11,10.0,WSW,4.6,-,N/A,,Overcast,240,2012-10-29 20:55:00
2:15 PM,62.6,60.8,94,30.10,10.0,SW,5.8,-,N/A,,Overcast,230,2012-10-29 21:15:00
2:35 PM,62.6,60.8,94,30.10,10.0,SW,5.8,-,N/A,,Overcast,230,2012-10-29 21:35:00
2:55 PM,62.6,60.8,94,30.09,10.0,SW,9.2,-,N/A,,Overcast,230,2012-10-29 21:55:00
3:15 PM,62.6,60.8,94,30.09,9.0,SW,9.2,-,N/A,,Overcast,220,2012-10-29 22:15:00
3:35 PM,60.8,60.8,100,30.09,8.0,SW,4.6,-,N/A,,Overcast,220,2012-10-29 22:35:00
3:55 PM,60.8,59.0,94,30.09,10.0,WSW,4.6,-,N/A,,Overcast,240,2012-10-29 22:55:00
4:15 PM,62.6,60.8,94,30.09,10.0,WSW,4.6,-,N/A,,Overcast,240,2012-10-29 23:15:00
4:35 PM,62.6,60.8,94,30.08,10.0,SSW,8.1,-,N/A,,Overcast,200,2012-10-29 23:35:00
4:55 PM,62.6,60.8,94,30.08,10.0,SSW,5.8,-,N/A,,Scattered Clouds,210,2012-10-29 23:55:00
5:15 PM,62.6,60.8,94,30.07,10.0,SSW,3.5,-,N/A,,Partly Cloudy,200,2012-10-30 00:15:00
5:35 PM,62.6,60.8,94,30.07,10.0,Calm,Calm,-,N/A,,Scattered Clouds,0,2012-10-30 00:35:00
5:55 PM,62.6,60.8,94,30.06,10.0,SSW,3.5,-,N/A,,Scattered Clouds,200,2012-10-30 00:55:00
6:15 PM,62.6,60.8,94,30.07,10.0,Calm,Calm,-,N/A,,Mostly Cloudy,0,2012-10-30 01:15:00
6:35 PM,59.0,57.2,94,30.07,6.0,West,8.1,-,N/A,,Overcast,260,2012-10-30 01:35:00
7:15 PM,57.2,57.2,100,30.06,10.0,SW,3.5,-,N/A,,Overcast,230,2012-10-30 02:15:00
7:35 PM,60.8,59.0,94,30.05,10.0,Calm,Calm,-,N/A,,Overcast,0,2012-10-30 02:35:00
7:55 PM,60.8,60.8,100,30.05,10.0,SW,3.5,-,N/A,,Overcast,230,2012-10-30 02:55:00
8:15 PM,60.8,59.0,94,30.05,10.0,Calm,Calm,-,N/A,,Mostly Cloudy,0,2012-10-30 03:15:00
8:35 PM,60.8,59.0,94,30.04,10.0,Calm,Calm,-,N/A,,Overcast,0,2012-10-30 03:35:00
8:55 PM,59.0,59.0,100,30.04,10.0,Calm,Calm,-,N/A,,Overcast,0,2012-10-30 03:55:00
9:15 PM,59.0,59.0,100,30.04,10.0,Calm,Calm,-,N/A,,Overcast,0,2012-10-30 04:15:00
9:35 PM,59.0,59.0,100,30.03,10.0,SSE,3.5,-,N/A,,Mostly Cloudy,150,2012-10-30 04:35:00
9:55 PM,59.0,59.0,100,30.02,10.0,ESE,3.5,-,N/A,,Scattered Clouds,120,2012-10-30 04:55:00
10:15 PM,59.0,57.2,94,30.03,10.0,Calm,Calm,-,N/A,,Overcast,0,2012-10-30 05:15:00
10:35 PM,60.8,59.0,94,30.03,10.0,SW,4.6,-,N/A,,Overcast,220,2012-10-30 05:35:00
10:55 PM,60.8,59.0,94,30.02,10.0,Calm,Calm,-,N/A,,Overcast,0,2012-10-30 05:55:00
11:15 PM,57.2,57.2,100,30.01,10.0,Calm,Calm,-,N/A,,Overcast,0,2012-10-30 06:15:00
11:35 PM,59.0,59.0,100,30.01,10.0,SSE,3.5,-,N/A,,Overcast,160,2012-10-30 06:35:00
11:55 PM,59.0,59.0,100,30.01,10.0,Calm,Calm,-,N/A,,Overcast,0,2012-10-30 06:55:00